Main page
METAR-TAF:

METAR-TAF

Airports :

McGhee Tyson Airport

Knoxville, Iowa, United States

latitude: 41-18N, longitude: 093-07W, elevation: 928 ft

Current weather observation

The report was made 23 minutes ago, at 15:15 UTC
Wind 14 mph from the Northwest
Temperature 70°F
Humidity 100%
Pressure 29.87 in. Hg
Visibility: 10 miles
Overcast at a height of 1100 ft

METAR: KOXV 281515Z AUTO 32012KT 10SM OVC011 21/21 A2987 RMK AO2

Time: 10:38 (15:38 UTC)


TAF: missing

Weather observations and forecasts of more than 4000 airports (METAR and TAF reports).

The available stations are represented by yellow and red dots on the map.

Hover mouse over dot to see the name of the station.

Then click to see weather observations and forecasts.

To change the map : click on the green buttons with a black cross to zoom in, on the green button with a dash to zoom out, or on the green arrows for adjacent maps.


METAR-TAF: